TimeEDT,TemperatureF,Dew PointF,Humidity,Sea Level PressureIn,VisibilityMPH,Wind Direction,Wind SpeedMPH,Gust SpeedMPH,PrecipitationIn,Events,Conditions,WindDirDegrees,DateUTC
12:56 AM,48.9,45.0,86,30.04,7.0,SSE,6.9,-,N/A,,Clear,150,2013-04-09 04:56:00
1:56 AM,48.0,46.0,93,30.01,7.0,SSE,8.1,-,N/A,,Clear,150,2013-04-09 05:56:00
2:56 AM,48.9,46.0,90,29.98,7.0,SSE,5.8,-,N/A,,Partly Cloudy,150,2013-04-09 06:56:00
3:56 AM,50.0,46.9,89,29.96,8.0,South,6.9,-,N/A,,Mostly Cloudy,170,2013-04-09 07:56:00
4:56 AM,50.0,46.9,89,29.95,8.0,SSW,8.1,-,N/A,,Scattered Clouds,210,2013-04-09 08:56:00
5:56 AM,50.0,46.9,89,29.95,8.0,SW,8.1,-,N/A,,Partly Cloudy,220,2013-04-09 09:56:00
6:56 AM,50.0,46.9,89,29.96,6.0,SW,5.8,-,N/A,,Clear,220,2013-04-09 10:56:00
7:56 AM,52.0,48.0,86,29.96,7.0,SW,6.9,-,N/A,,Clear,220,2013-04-09 11:56:00
8:56 AM,55.9,48.9,77,29.95,8.0,South,6.9,-,N/A,,Clear,190,2013-04-09 12:56:00
9:56 AM,64.9,51.1,61,29.95,10.0,SW,8.1,-,N/A,,Clear,220,2013-04-09 13:56:00
10:56 AM,68.0,50.0,52,29.94,10.0,South,8.1,-,N/A,,Clear,180,2013-04-09 14:56:00
11:30 AM,77.0,46.4,34,29.93,10.0,WNW,20.7,28.8,N/A,,Clear,290,2013-04-09 15:30:00
11:56 AM,78.1,45.0,31,29.93,10.0,WNW,17.3,28.8,N/A,,Clear,290,2013-04-09 15:56:00
12:56 PM,79.0,44.1,29,29.93,10.0,WNW,19.6,31.1,N/A,,Clear,290,2013-04-09 16:56:00
1:56 PM,81.0,42.1,25,29.93,10.0,WNW,17.3,28.8,N/A,,Clear,300,2013-04-09 17:56:00
2:56 PM,81.0,41.0,24,29.93,10.0,NW,23.0,35.7,N/A,,Clear,310,2013-04-09 18:56:00
3:56 PM,80.1,39.0,23,29.93,10.0,WNW,15.0,24.2,N/A,,Clear,290,2013-04-09 19:56:00
4:56 PM,80.1,37.9,22,29.93,10.0,NNW,12.7,19.6,N/A,,Clear,330,2013-04-09 20:56:00
5:56 PM,77.0,37.0,24,29.95,10.0,NNW,8.1,-,N/A,,Clear,330,2013-04-09 21:56:00
6:56 PM,73.9,36.0,25,29.96,10.0,NNW,4.6,-,N/A,,Clear,330,2013-04-09 22:56:00
7:56 PM,66.0,39.0,37,29.97,10.0,Calm,Calm,-,N/A,,Clear,0,2013-04-09 23:56:00
8:56 PM,60.1,39.0,46,29.99,10.0,Calm,Calm,-,N/A,,Clear,0,2013-04-10 00:56:00
9:56 PM,55.9,44.1,64,30.00,10.0,South,3.5,-,N/A,,Clear,180,2013-04-10 01:56:00
10:56 PM,53.1,43.0,69,29.99,10.0,Calm,Calm,-,N/A,,Clear,0,2013-04-10 02:56:00
11:56 PM,52.0,43.0,71,29.94,10.0,Calm,Calm,-,N/A,,Clear,0,2013-04-10 03:56:00